COSMOS 2251 DEB, 36058

Orbit data source: Space-Track

COSMOS 2251 DEB, 36058 is space debris in LEO originally from a launch on Wed, 16 Jun 1993 UTC launched from the Plesetsk Missile And Space Complex (PKMTR). The debris from Iridium 33, an American commercial communications satellite, has been tracked extensively since its accidental collision with the defunct Russian satellite Cosmos 2251 in 2009. This event, occurring at high speed in low Earth orbit (LEO), generated thousands of pieces of space debris, significantly increasing the risk of further collisions. The Iridium 33 debris cloud has impacted space traffic management and orbital debris mitigation strategies, making it a subject of ongoing study in space situational awareness.

Loading next visibility...
Identifier
36058, 1993-036AXV
Orbit
LEO
Country
Flag of CISCIS
Related business
Manufacturer
Unknown
Mission
Spacecraft
Bus & Motor
Unknown
Mass
Unknown
Launch date (UTC)
1993-06-16 (33 years ago)
Launch vehicle
Unknown
Launch site
Plesetsk Missile And Space Complex (PKMTR)
Object type
Payload
Rocket body
Debris
Shape & HBR
Unknown shape, 0.1 m
Radar Cross Section
Small (<0.1 m²)

Expand to show TLE details & history
Last TLE update: 1 week ago

TLE from 1 week ago
0 COSMOS 2251 DEB
1 36058U 93036AXV 26027.50254686  .00004884  00000-0  10320-2 0  9998
2 36058  74.0233 306.2218 0043778  66.8754 293.7016 14.59002907667789
Epoch: 2026-01-27T12:03Z
TLE epoch observation values (Epoch: 2026-01-27T12:03:40.048Z)
Latitude
0.00003°
Longitude
-1.47808°
Altitude
686.696 km
Speed
7.52 km/s
True Right ascension
20h 24m 53s
True Declination
0° 00' 00"
Sunlit
Object was in daylight at epoch
Visualization orbit readout
Latitude
Unknown
Longitude
Unknown
Altitude
Unknown
Speed
Unknown
Apparent Right ascension
Unknown
Apparent Declination
Unknown
Sunlit
N/A
Visualization observer readout
Local Sidereal Time
00:59:02
Azimuth
Unknown
Elevation
Unknown
Doppler factor
Unknown
Orbital elements
Apogee altitude
724.955 km
Perigee altitude
663.035 km
Semi-major axis
7,072.132 km
Eccentricity
0.00438
Inclination
74.0233°
RAAN
306.2218°
Arg. of periapsis
66.8754°
True anomaly
293.24125°
Mean anomaly
293.7016°
Eccentric anomaly
293.47152°
Mean motion
3.64937 °/min
Orbital period
98.65 mins
BSTAR
0.001032
Loading maneuver chart data...
Computing Atmospheric mass density...

Documentation

Showing up to 5 results
|